Location: Newark
(38.0892°N, 27.7378°E)
Time: 06:47:16
(UTC+00:00)

N. Korean satellite - Pass Details

Date: 12 December 2019
Orbit: 454 x 508 km, 97.2° (Epoch: 20 January)

Event Time Altitude Azimuth Distance (km) Brightness Sun altitude
Rises 16:18:02 0° 210° (SSW) 2,599 11.0 -16.9°
Reaches altitude 10° 16:21:07 10° 239° (WSW) 1,718 10.5 -17.5°
Maximum altitude 16:22:52 13° 268° (W) 1,541 10.2 -17.8°
Drops below altitude 10° 16:24:38 10° 296° (WNW) 1,719 10.0 -18.1°
Sets 16:27:44 0° 325° (NW) 2,601 10.5 -18.7°
